TimeCDT,TemperatureF,Dew PointF,Humidity,Sea Level PressureIn,VisibilityMPH,Wind Direction,Wind SpeedMPH,Gust SpeedMPH,PrecipitationIn,Events,Conditions,WindDirDegrees,DateUTC
12:13 AM,28.4,26.6,93,29.50,-9999.0,NNE,12.7,23.0,N/A,,Unknown,20,2013-04-19 05:13:00
12:33 AM,28.4,26.6,93,29.49,-9999.0,North,10.4,23.0,0.01,,Unknown,360,2013-04-19 05:33:00
12:53 AM,26.6,24.8,93,29.49,-9999.0,North,13.8,25.3,0.01,,Unknown,10,2013-04-19 05:53:00
1:13 AM,26.6,24.8,93,29.49,-9999.0,North,10.4,20.7,N/A,,Unknown,10,2013-04-19 06:13:00
1:32 AM,26.6,24.8,93,29.50,-9999.0,North,11.5,21.9,0.01,,Unknown,360,2013-04-19 06:32:00
1:53 AM,26.6,24.8,93,29.50,-9999.0,North,9.2,20.7,0.02,,Unknown,10,2013-04-19 06:53:00
2:13 AM,26.6,24.8,93,29.50,-9999.0,North,5.8,-,N/A,,Unknown,350,2013-04-19 07:13:00
2:33 AM,26.6,24.8,93,29.50,-9999.0,North,9.2,20.7,0.01,,Unknown,350,2013-04-19 07:33:00
2:53 AM,26.6,24.8,93,29.50,-9999.0,North,10.4,18.4,0.01,,Unknown,350,2013-04-19 07:53:00
3:13 AM,24.8,24.8,100,29.50,-9999.0,North,9.2,23.0,N/A,,Unknown,350,2013-04-19 08:13:00
3:33 AM,24.8,24.8,100,29.50,-9999.0,North,10.4,17.3,0.01,,Unknown,360,2013-04-19 08:33:00
3:53 AM,24.8,23.0,93,29.50,-9999.0,North,11.5,21.9,0.01,,Unknown,350,2013-04-19 08:53:00
4:13 AM,24.8,21.2,86,29.50,-9999.0,North,10.4,23.0,0.01,,Unknown,360,2013-04-19 09:13:00
4:33 AM,24.8,23.0,93,29.49,-9999.0,North,9.2,17.3,0.02,,Unknown,350,2013-04-19 09:33:00
4:53 AM,24.8,21.2,86,29.49,-9999.0,North,11.5,26.5,0.03,,Unknown,350,2013-04-19 09:53:00
5:13 AM,24.8,21.2,86,29.49,-9999.0,North,8.1,18.4,N/A,,Unknown,350,2013-04-19 10:13:00
5:33 AM,23.0,21.2,93,29.49,-9999.0,North,11.5,27.6,N/A,,Unknown,360,2013-04-19 10:33:00
5:53 AM,23.0,21.2,93,29.49,-9999.0,North,10.4,21.9,N/A,,Unknown,350,2013-04-19 10:53:00
6:13 AM,23.0,21.2,93,29.49,-9999.0,North,12.7,24.2,N/A,,Unknown,350,2013-04-19 11:13:00
6:33 AM,21.2,19.4,93,29.49,-9999.0,North,13.8,24.2,N/A,,Unknown,350,2013-04-19 11:33:00
6:52 AM,21.2,19.4,93,29.49,-9999.0,NNW,16.1,29.9,N/A,,Unknown,340,2013-04-19 11:52:00
7:13 AM,21.2,19.4,93,29.50,-9999.0,NNW,12.7,26.5,0.01,,Unknown,340,2013-04-19 12:13:00
7:33 AM,21.2,19.4,93,29.50,-9999.0,North,10.4,26.5,0.01,,Unknown,350,2013-04-19 12:33:00
7:52 AM,21.2,19.4,93,29.50,-9999.0,North,18.4,29.9,0.01,,Unknown,350,2013-04-19 12:52:00
8:13 AM,21.2,19.4,93,29.50,-9999.0,NNW,9.2,24.2,N/A,,Unknown,340,2013-04-19 13:13:00
8:33 AM,23.0,19.4,86,29.49,-9999.0,NNW,19.6,32.2,N/A,,Unknown,340,2013-04-19 13:33:00
8:52 AM,23.0,19.4,86,29.49,-9999.0,North,16.1,29.9,N/A,,Unknown,350,2013-04-19 13:52:00
9:13 AM,23.0,19.4,86,29.50,-9999.0,North,13.8,21.9,N/A,,Unknown,350,2013-04-19 14:13:00
9:33 AM,23.0,19.4,86,29.50,-9999.0,North,13.8,39.1,N/A,,Unknown,350,2013-04-19 14:33:00
9:53 AM,23.0,19.4,86,29.51,-9999.0,North,12.7,34.5,N/A,,Unknown,360,2013-04-19 14:53:00
10:13 AM,24.8,19.4,80,29.51,-9999.0,North,12.7,23.0,N/A,,Unknown,350,2013-04-19 15:13:00
10:32 AM,24.8,19.4,80,29.51,2.5,North,17.3,29.9,N/A,Snow,Light Snow,350,2013-04-19 15:32:00
10:53 AM,24.8,19.4,80,29.53,1.5,North,12.7,34.5,N/A,Snow,Light Snow,350,2013-04-19 15:53:00
11:13 AM,24.8,19.4,80,29.54,1.0,North,12.7,29.9,N/A,Snow,Light Snow,360,2013-04-19 16:13:00
11:33 AM,24.8,19.4,80,29.55,1.0,North,12.7,28.8,N/A,Snow,Light Snow,360,2013-04-19 16:33:00
11:51 AM,24.8,19.4,80,29.55,1.8,NNW,10.4,21.9,N/A,Snow,Light Snow,340,2013-04-19 16:51:00
12:13 PM,24.8,19.4,80,29.56,1.0,NNW,11.5,27.6,N/A,Snow,Light Snow,340,2013-04-19 17:13:00
12:32 PM,24.8,17.6,74,29.57,1.8,North,10.4,29.9,N/A,Snow,Light Snow,360,2013-04-19 17:32:00
12:53 PM,24.8,19.4,80,29.58,1.5,NNW,11.5,29.9,N/A,Snow,Light Snow,340,2013-04-19 17:53:00
1:12 PM,24.8,17.6,74,29.59,2.0,North,15.0,28.8,N/A,Snow,Light Snow,350,2013-04-19 18:12:00
1:33 PM,26.6,19.4,74,29.60,10.0,NNW,11.5,27.6,N/A,Snow,Light Snow,340,2013-04-19 18:33:00
1:53 PM,24.8,17.6,74,29.61,2.5,NNW,15.0,33.4,N/A,Snow,Light Snow,340,2013-04-19 18:53:00
2:12 PM,26.6,19.4,74,29.63,2.5,NNW,10.4,21.9,N/A,Snow,Light Snow,330,2013-04-19 19:12:00
2:33 PM,26.6,17.6,69,29.64,4.0,NNW,16.1,26.5,N/A,Snow,Light Snow,330,2013-04-19 19:33:00
2:53 PM,26.6,19.4,74,29.65,1.2,NNW,10.4,26.5,N/A,Snow,Light Snow,340,2013-04-19 19:53:00
3:12 PM,26.6,19.4,74,29.66,4.0,NNW,12.7,25.3,N/A,Snow,Light Snow,340,2013-04-19 20:12:00
3:33 PM,26.6,19.4,74,29.67,5.0,NNW,10.4,20.7,N/A,,Haze,330,2013-04-19 20:33:00
3:53 PM,26.6,17.6,69,29.68,2.5,NNW,18.4,28.8,N/A,Snow,Light Snow,340,2013-04-19 20:53:00
4:12 PM,26.6,17.6,69,29.70,3.0,North,16.1,32.2,N/A,Snow,Light Snow,350,2013-04-19 21:12:00
4:33 PM,26.6,15.8,64,29.71,7.0,NNW,13.8,26.5,N/A,,Unknown,340,2013-04-19 21:33:00
4:53 PM,26.6,14.0,59,29.73,10.0,NNW,13.8,23.0,N/A,,Unknown,340,2013-04-19 21:53:00
5:12 PM,26.6,12.2,55,29.74,10.0,NNW,17.3,29.9,N/A,,Unknown,340,2013-04-19 22:12:00
5:33 PM,26.6,12.2,55,29.75,10.0,NNW,12.7,24.2,N/A,,Unknown,330,2013-04-19 22:33:00
5:53 PM,26.6,10.4,51,29.76,10.0,NNW,17.3,24.2,N/A,,Unknown,340,2013-04-19 22:53:00
6:12 PM,26.6,8.6,47,29.76,10.0,North,15.0,21.9,N/A,,Unknown,350,2013-04-19 23:12:00
6:33 PM,26.6,10.4,51,29.78,10.0,NNW,8.1,16.1,N/A,,Unknown,340,2013-04-19 23:33:00
6:53 PM,26.6,10.4,51,29.78,10.0,NNW,5.8,-,N/A,,Unknown,340,2013-04-19 23:53:00
7:12 PM,26.6,10.4,51,29.79,10.0,NNW,6.9,-,N/A,,Unknown,340,2013-04-20 00:12:00
7:33 PM,26.6,8.6,47,29.80,10.0,NNW,8.1,19.6,N/A,,Unknown,330,2013-04-20 00:33:00
7:53 PM,24.8,10.4,54,29.81,10.0,North,4.6,-,N/A,,Unknown,350,2013-04-20 00:53:00
8:12 PM,24.8,8.6,50,29.82,10.0,NNW,5.8,-,N/A,,Unknown,340,2013-04-20 01:12:00
8:33 PM,23.0,8.6,54,29.83,10.0,NNW,5.8,-,N/A,,Unknown,330,2013-04-20 01:33:00
8:52 PM,21.2,8.6,58,29.83,10.0,NNW,4.6,-,N/A,,Unknown,330,2013-04-20 01:52:00
9:13 PM,21.2,8.6,58,29.84,10.0,Calm,Calm,-,N/A,,Unknown,0,2013-04-20 02:13:00
9:33 PM,19.4,8.6,63,29.85,10.0,NW,3.5,-,N/A,,Unknown,320,2013-04-20 02:33:00
9:52 PM,17.6,8.6,68,29.86,10.0,Calm,Calm,-,N/A,,Unknown,0,2013-04-20 02:52:00
10:13 PM,15.8,8.6,73,29.87,10.0,NW,3.5,-,N/A,,Unknown,310,2013-04-20 03:13:00
10:33 PM,14.0,6.8,73,29.87,10.0,Calm,Calm,-,N/A,,Unknown,0,2013-04-20 03:33:00
10:52 PM,15.8,6.8,68,29.88,10.0,Calm,Calm,-,N/A,,Unknown,0,2013-04-20 03:52:00
11:13 PM,8.6,6.8,92,29.89,10.0,Calm,Calm,-,N/A,,Unknown,0,2013-04-20 04:13:00
11:33 PM,8.6,6.8,92,29.89,10.0,Calm,Calm,-,N/A,,Unknown,0,2013-04-20 04:33:00
11:39 PM,8.6,6.8,92,29.90,10.0,Calm,Calm,-,N/A,,Unknown,0,2013-04-20 04:39:00